Location: Unspecified
(40.9447°N, 78.9903°W)
Time: 02:18:47
(UTC-04:00)

Okean 3 - Pass Details

Date: 26 July 2021
Orbit: 575 x 601 km, 82.5° (Epoch: 26 September)

Event Time Altitude Azimuth Distance (km) Brightness Sun altitude
Rises 02:20:37 0° 356° (N) 2,855 8.0 -28.2°
Reaches altitude 10° 02:22:53 10° 1° (N) 1,945 7.0 -28.1°
Enters shadow 02:26:16 47° 36° (NE) 798 4.4 -27.9°
